User: anonymous   Login
Location: Unspecified
(0.0000°N, 0.0000°E)
Time: 11:33:10
(UTC+01:00)
Language:

YAOGAN 3 - Orbit

View from above orbital plane
View from above orbital plane
View from above satellite
View from above satellite

Ground track
Ground track

The orbit data is extracted from the following two-line orbital elements,

1 32289U 07055A   17345.81590211 -.00000235  00000-0 -23610-4 0  9996
2 32289  98.0045 347.3864 0001788  87.9877 272.1543 14.80861696545026
Epoch (UTC): 11 December 2017 19:34:53
Eccentricity: 0.0001788
inclination: 98.0045°
perigee height: 625 km
apogee height: 628 km
right ascension of ascending node: 347.3864°
argument of perigee: 87.9877°
revolutions per day: 14.80861696
mean anomaly at epoch: 272.1543°
orbit number at epoch: 54502

The dashed part of the orbit path shows where the satellite is in the earth's shadow,  

DLR